EA1HTW-13 Weather Reports


time (UTC)temp
C
wind
direction
speed
KPH
gust
KPH
rain 1hr
cm
rain 24hr
cm
rain mn
cm
humidity
%
barometer
mb
20260503225015 15 45 0.0 0.0 0.00 2.16 0.00 73 1008.5
20260503224114 15 45 0.0 0.0 0.00 2.16 0.00 73 1008.5
20260503223214 15 45 0.0 0.0 0.00 2.26 0.00 73 1008.5
20260503222315 15 45 0.0 0.0 0.00 2.34 0.00 73 1008.5
20260503221415 15 45 0.0 0.0 0.00 2.39 0.00 73 1008.4
20260503220514 15 45 0.0 0.0 0.00 2.39 0.00 73 1008.4
20260503215615 15 45 0.0 1.6 0.00 2.39 2.39 73 1008.3
20260503214716 15 45 0.0 1.6 0.00 2.39 2.39 72 1008.2
20260503213814 15 45 0.0 1.6 0.00 2.39 2.39 72 1008.2
20260503212914 15 45 0.0 1.6 0.00 2.39 2.39 71 1008.1
20260503212014 15 45 0.0 0.0 0.00 2.39 2.39 71 1008.1
20260503211115 15 45 0.0 0.0 0.00 2.39 2.39 70 1008.1
20260503210214 15 45 0.0 0.0 0.00 2.39 2.39 70 1008.1
20260503205316 15 45 0.0 1.6 0.00 2.39 2.39 70 1008.0
20260503204415 15 0 0.0 1.6 0.00 2.39 2.39 70 1008.0
20260503203515 15 0 0.0 1.6 0.00 2.39 2.39 69 1007.8
20260503202614 15 0 0.0 1.6 0.00 2.39 2.39 69 1007.8
20260503201715 15 0 0.0 0.0 0.00 2.39 2.39 69 1007.8
20260503200815 15 0 0.0 1.6 0.00 2.39 2.39 69 1007.6
20260503195914 15 0 0.0 1.6 0.00 2.39 2.39 69 1007.5
20260503195015 15 0 0.0 1.6 0.00 2.44 2.39 69 1007.5
20260503194115 15 0 0.0 1.6 0.00 2.44 2.39 69 1007.3
20260503193215 15 45 1.6 1.6 0.00 2.49 2.39 68 1007.2
20260503192315 16 45 0.0 1.6 0.00 3.25 2.39 67 1007.3
20260503191415 16 22 0.0 1.6 0.00 3.28 2.39 67 1007.0
20260503190513 16 0 0.0 1.6 0.00 3.28 2.39 66 1007.1
20260503185614 16 1 1.6 3.2 0.00 3.28 2.39 64 1007.2
20260503184714 16 0 0.0 1.6 0.00 3.28 2.39 64 1007.1
20260503183814 16 0 1.6 3.2 0.00 3.28 2.39 63 1006.9
20260503182914 17 0 0.0 1.6 0.00 3.28 2.39 63 1007.0
20260503182014 17 0 1.6 3.2 0.00 3.28 2.39 62 1006.9
20260503181115 16 0 1.6 4.8 0.00 3.28 2.39 63 1007.0
20260503180214 17 0 3.2 4.8 0.00 3.28 2.39 62 1007.0
20260503175314 17 0 1.6 4.8 0.00 3.28 2.39 63 1007.0
20260503174415 17 0 1.6 3.2 0.00 3.28 2.39 62 1007.2
20260503173515 17 0 1.6 3.2 0.00 3.28 2.39 60 1007.0
20260503172615 17 0 3.2 4.8 0.00 3.28 2.39 58 1007.0
20260503171714 18 0 1.6 1.6 0.00 3.28 2.39 56 1007.0
20260503170813 18 0 3.2 3.2 0.00 3.28 2.39 55 1007.0
20260503150214 22 45 1.6 4.8 0.00 3.28 2.39 43 1006.7
20260503131414 18 45 3.2 4.8 0.00 3.28 2.39 60 1006.9
20260503130515 18 45 1.6 4.8 0.00 3.28 2.39 61 1006.9
20260503120216 17 45 0.0 1.6 0.00 3.28 2.39 68 1007.0
20260503110813 16 90 1.6 1.6 0.00 3.28 2.39 75 1007.1
20260503090215 15 90 0.0 0.0 0.10 2.95 2.06 85 1007.1
20260503080815 13 90 0.0 0.0 0.61 2.87 2.01 87 1006.9
20260503072314 13 90 0.0 0.0 1.35 2.54 1.68 87 1006.7
20260503071414 13 90 0.0 0.0 1.27 2.39 1.52 87 1006.7
20260503070514 13 90 0.0 0.0 1.09 2.21 1.35 87 1006.5
20260503060215 14 90 0.0 0.0 0.00 1.14 0.28 85 1006.0
20260503054415 14 90 0.0 1.6 0.00 1.14 0.28 85 1006.0
20260503053514 14 90 0.0 0.0 0.00 1.14 0.28 85 1006.0
20260503052614 14 90 0.0 0.0 0.00 1.14 0.28 85 1006.1
20260503051715 14 90 0.0 0.0 0.00 1.14 0.28 85 1005.9
20260503050815 14 90 0.0 0.0 0.00 1.14 0.28 85 1006.0
20260503045915 14 90 0.0 0.0 0.00 1.14 0.28 85 1006.1
20260503045014 14 90 0.0 0.0 0.00 1.14 0.28 85 1005.9
20260503044115 14 90 0.0 0.0 0.00 1.14 0.28 84 1006.2
20260503043215 14 90 0.0 0.0 0.00 1.14 0.28 84 1006.0
20260503042315 14 90 0.0 0.0 0.00 1.14 0.28 84 1006.1
20260503041414 14 90 0.0 0.0 0.00 1.14 0.28 84 1005.9
20260503040515 14 90 0.0 0.0 0.00 1.14 0.28 84 1006.1
20260503035615 14 90 0.0 0.0 0.00 1.14 0.28 84 1006.2
20260503034714 14 90 0.0 0.0 0.00 1.14 0.28 84 1006.2
20260503033815 14 90 0.0 0.0 0.00 1.14 0.28 85 1006.3
20260503032914 14 90 0.0 0.0 0.00 1.14 0.28 85 1006.6
20260503032014 14 90 0.0 0.0 0.00 1.14 0.28 85 1006.5
20260503031116 14 90 0.0 0.0 0.00 1.14 0.28 85 1006.4
20260503030215 14 90 0.0 0.0 0.00 1.14 0.28 85 1006.5
20260503025314 14 90 0.0 0.0 0.00 1.14 0.28 85 1006.5
20260503024414 15 90 0.0 0.0 0.00 1.14 0.28 85 1006.6
20260503023515 15 90 0.0 0.0 0.00 1.14 0.28 85 1006.7
20260503022615 15 90 0.0 0.0 0.00 1.14 0.28 85 1006.7
20260503021715 15 90 0.0 0.0 0.00 1.14 0.28 85 1006.7
20260503020814 15 90 0.0 0.0 0.00 1.14 0.28 85 1006.8
20260503015914 15 90 0.0 0.0 0.00 1.14 0.28 84 1006.6
20260503015014 15 90 0.0 0.0 0.00 1.14 0.28 84 1006.7
20260503014114 15 90 0.0 0.0 0.00 1.14 0.28 84 1007.0
20260503013213 15 90 0.0 0.0 0.00 1.14 0.28 84 1007.0
20260503012314 15 90 0.0 0.0 0.00 1.14 0.28 84 1007.2
20260503011415 15 90 0.0 0.0 0.00 1.14 0.28 84 1007.2
20260503010515 15 90 0.0 0.0 0.00 1.14 0.28 84 1007.3
20260503005614 15 90 0.0 0.0 0.00 1.14 0.28 84 1007.3
20260503004714 15 90 0.0 0.0 0.00 1.14 0.28 84 1007.5
20260503003814 15 90 0.0 0.0 0.00 1.14 0.28 84 1007.6
20260503002914 15 90 0.0 0.0 0.00 1.14 0.28 84 1007.7
20260503002015 15 90 0.0 0.0 0.00 1.14 0.28 84 1007.6
20260503001114 15 90 0.0 0.0 0.00 1.14 0.28 84 1007.7
20260503000215 15 90 0.0 0.0 0.03 1.14 0.28 84 1007.9
20260502235315 15 90 0.0 0.0 0.03 1.14 0.28 83 1007.8
20260502234415 15 90 0.0 0.0 0.03 1.14 0.28 83 1008.1
20260502233514 15 90 0.0 0.0 0.05 1.14 0.28 83 1007.8
20260502232614 15 90 0.0 0.0 0.20 1.14 0.28 83 1007.9
20260502231713 15 90 0.0 0.0 0.28 1.14 0.28 83 1008.1
20260502230815 15 90 0.0 0.0 0.28 1.14 0.28 83 1008.0
20260502225915 15 90 0.0 0.0 0.00 1.12 0.23 83 1007.9